Flag for Vietnam Weather past 2 weeks in Hanoi, Vietnam

68 °F


Feels Like: 68 °F
Forecast: 70 / 85 °F
Wind: 3 mph from North

Location: Ha Noi Airport

Current Time: Oct 14, 2015 at 6:51:27 AM

Latest Report: Oct 14, 2015 at 6:30 AM

Visibility: 3 mi

Pressure: 30.09 "Hg

Humidity: 88%

Dew point: 64 °F

Location of HanoiLocation

Historic Weather in Hanoi — Graph


Hanoi temperature yesterday

Maximum temperature yesterday: 82 °F (at 1:00 PM)
Minimum temperature yesterday: 70 °F (at 12:00 AM)
Average temperature yesterday: 75 °F

Past Weeks' High & Low Weather Summary

High95 °F (Sep 29, 1:00 PM)100% (Sep 30, 4:00 AM)30.18 "Hg (Sep 30, 4:00 AM)
Low66 °F (Oct 10, 4:00 PM)39% (Oct 13, 2:30 PM)29.68 "Hg (Sep 29, 3:00 PM)
Average80 °F70%29.92 "Hg
* Reported Sep 29 7:00 AM — Oct 14 6:00 AM, Hanoi, Weather by CustomWeather, © 2015

Note: Actual official high and low records may vary slightly from our data, if they occured in-between our weather recording intervals... More about our weather records


Hanoi weather history for previous 24 hours

Time TempWeatherWind HumidityBarometerVisibility
6:00 AM
Wed, Oct 14
68 °FClear.2 mph88%30.09 "Hg3 mi
5:30 AM68 °FClear.5 mph88%30.07 "Hg3 mi
5:00 AM68 °FClear.3 mph88%30.07 "Hg4 mi
4:30 AM68 °FClear.3 mph88%30.07 "Hg5 mi
4:00 AM68 °FClear.1 mph83%30.07 "Hg5 mi
3:30 AM68 °FClear.3 mph83%30.07 "Hg4 mi
3:00 AM68 °FClear.6 mph83%30.07 "Hg5 mi
2:30 AM70 °FClear.5 mph78%30.07 "Hg5 mi
2:00 AM70 °FClear.3 mph78%30.07 "Hg10 mi
1:30 AM72 °FPassing clouds.6 mph73%30.07 "HgN/A
1:00 AM72 °FClear.3 mph73%30.09 "Hg10 mi
12:30 AM72 °FClear.5 mph73%30.09 "Hg10 mi
12:00 AM72 °FClear.5 mph73%30.12 "Hg10 mi
11:30 PM
Tue, Oct 13
72 °FPassing clouds.7 mph73%30.12 "HgN/A
11:00 PM73 °FClear.6 mph65%30.12 "Hg10 mi
10:30 PM73 °FClear.5 mph65%30.12 "Hg10 mi
10:00 PM75 °FClear.2 mph61%30.12 "Hg10 mi
9:30 PM75 °FClear.3 mph61%30.12 "Hg10 mi
9:00 PM75 °FPassing clouds.5 mph61%30.12 "HgN/A
8:30 PM75 °FClear.3 mph61%30.12 "Hg10 mi
8:00 PM75 °FClear.5 mph61%30.09 "Hg10 mi
7:30 PM75 °FClear.7 mph61%30.09 "Hg10 mi
7:00 PM75 °FClear.7 mph65%30.07 "Hg5 mi
6:30 PM75 °FClear.5 mph61%30.07 "Hg10 mi
6:00 PM75 °FClear.3 mph61%30.07 "Hg6 mi
5:30 PM77 °FSunny.7 mph54%30.07 "Hg10 mi
5:00 PM77 °FSunny.8 mph57%30.07 "Hg10 mi
4:30 PM79 °FSunny.12 mph54%30.04 "Hg10 mi
4:00 PM79 °FSunny.12 mph54%30.04 "Hg10 mi
3:30 PM81 °FSunny.9 mph45%30.04 "Hg10 mi
3:00 PM81 °FSunny.8 mph45%30.07 "Hg10 mi
2:30 PM81 °FPassing clouds.8 mph39%30.07 "HgN/A
2:00 PM81 °FPassing clouds.7 mph42%30.07 "HgN/A
1:30 PM81 °FPassing clouds.8 mph42%30.07 "HgN/A
1:00 PM82 °FPassing clouds.7 mph40%30.09 "HgN/A
12:30 PM81 °FPassing clouds.6 mph45%30.09 "HgN/A
12:00 PM81 °FSunny.5 mph48%N/A10 mi
11:30 AM79 °FPassing clouds.7 mph48%30.12 "HgN/A
10:30 AM77 °FPassing clouds.8 mph61%30.15 "HgN/A
10:00 AM77 °FPassing clouds.7 mph61%30.15 "HgN/A
9:30 AM75 °FClear.6 mph65%30.15 "Hg5 mi
9:00 AM75 °FClear.6 mph65%30.15 "Hg4 mi
8:30 AM73 °FClear.6 mph69%30.15 "Hg6 mi
8:00 AM73 °FPassing clouds.5 mph65%30.15 "HgN/A
7:30 AM72 °FSunny.2 mph73%30.15 "Hg10 mi
7:00 AM70 °FClear.3 mph73%30.12 "Hg5 mi
6:30 AM70 °FClear.1 mph83%30.12 "Hg5 mi
6:00 AM70 °FClear.No wind78%30.12 "Hg6 mi
Weather by CustomWeather, © 2015

See weather overviewHow to use our weather pages